W7YP Weather Reports


Display with metric or nautical units.
time (UTC)temp
F
wind
direction
speed
MPH
gust
MPH
rain 1hr
in
rain 24hr
in
rain mn
in
humidity
%
barometer
mb
20260503200519 71 192 2.0 13.0 0.00 0.00 0.00 33 1013.9
20260503200022 71 316 1.0 6.0 0.00 0.00 0.00 35 1014.0
20260503195518 70 336 0.0 10.0 0.00 0.00 0.00 33 1014.1
20260503195015 70 155 3.0 10.0 0.00 0.00 0.00 33 1014.3
20260503194510 70 172 1.0 6.0 0.00 0.00 0.00 35 1014.4
20260503194009 69 331 0.0 9.0 0.00 0.00 0.00 34 1014.6
20260503193737 69 349 2.0 9.0 0.00 0.00 0.00 34 1014.6
20260503193010 69 285 1.0 8.0 0.00 0.00 0.00 34 1014.6
20260503192510 69 333 1.0 9.0 0.00 0.00 0.00 34 1014.7
20260503192006 69 213 2.0 9.0 0.00 0.00 0.00 34 1014.8
20260503191502 69 0 1.0 6.0 0.00 0.00 0.00 37 1014.7
20260503191001 69 180 1.0 7.0 0.00 0.00 0.00 35 1014.9
20260503190501 69 300 2.0 7.0 0.00 0.00 0.00 35 1014.9
20260503190001 69 86 1.0 7.0 0.00 0.00 0.00 36 1014.9
20260503185500 68 286 1.0 6.0 0.00 0.00 0.00 35 1015.0
20260503185004 68 198 0.0 9.0 0.00 0.00 0.00 36 1015.1
20260503184503 67 170 3.0 9.0 0.00 0.00 0.00 35 1015.3
20260503183957 67 152 1.0 10.0 0.00 0.00 0.00 36 1015.1
20260503183715 67 327 1.0 10.0 0.00 0.00 0.00 35 1015.1
20260503182952 67 5 4.0 10.0 0.00 0.00 0.00 33 1015.4
20260503182454 66 86 1.0 8.0 0.00 0.00 0.00 35 1015.4
20260503181952 66 101 1.0 5.0 0.00 0.00 0.00 37 1015.5
20260503181452 65 200 1.0 8.0 0.00 0.00 0.00 37 1015.6
20260503180947 65 144 0.0 8.0 0.00 0.00 0.00 38 1015.6
20260503180447 64 165 1.0 3.0 0.00 0.00 0.00 39 1015.7
20260503175948 64 321 0.0 5.0 0.00 0.00 0.00 43 1015.7
20260503175448 63 317 1.0 5.0 0.00 0.00 0.00 47 1015.8
20260503174949 62 130 0.0 4.0 0.00 0.00 0.00 43 1015.9
20260503174711 62 119 1.0 4.0 0.00 0.00 0.00 49 1015.8
20260503173946 62 97 0.0 4.0 0.00 0.00 0.00 51 1015.9
20260503173447 61 98 1.0 4.0 0.00 0.00 0.00 52 1015.8
20260503172944 61 94 1.0 4.0 0.00 0.00 0.00 52 1015.9
20260503172444 61 67 0.0 3.0 0.00 0.00 0.00 52 1016.0
20260503171944 60 65 1.0 4.0 0.00 0.00 0.00 53 1016.2
20260503171444 60 102 1.0 4.0 0.00 0.00 0.00 53 1016.2
20260503171206 60 125 0.0 4.0 0.00 0.00 0.00 56 1016.2
20260503170709 59 76 0.0 7.0 0.00 0.00 0.00 56 1016.2
20260503160145 54 83 1.0 3.0 0.00 0.00 0.00 62 1016.7
20260503150904 50 121 0.0 2.0 0.00 0.00 0.00 69 1017.6
20260503150628 50 121 0.0 1.0 0.00 0.00 0.00 69 1017.7
20260503150126 49 121 0.0 3.0 0.00 0.00 0.00 69 1017.8
20260503131322 38 298 0.0 0.0 0.00 0.00 0.00 94 1017.8
20260503130822 38 298 0.0 0.0 0.00 0.00 0.00 94 1017.7
20260503130325 37 298 0.0 2.0 0.00 0.00 0.00 94 1017.6
20260503110703 39 298 0.0 0.0 0.00 0.00 0.00 91 1017.5
20260503110201 39 298 0.0 0.0 0.00 0.00 0.00 91 1017.5
20260503100112 40 298 0.0 0.0 0.00 0.00 0.00 90 1017.4
20260503081530 43 298 0.0 0.0 0.00 0.00 0.00 87 1017.4
20260503081249 43 298 0.0 0.0 0.00 0.00 0.00 86 1017.4
20260503080531 43 298 0.0 0.0 0.00 0.00 0.00 86 1017.3
20260503072726 44 298 0.0 0.0 0.00 0.00 0.00 84 1017.3
20260503071958 44 298 0.0 0.0 0.00 0.00 0.00 83 1017.3
20260503071448 44 298 0.0 0.0 0.00 0.00 0.00 83 1017.3
20260503070948 45 298 0.0 0.0 0.00 0.00 0.00 83 1017.3
20260503070442 45 298 0.0 0.0 0.00 0.00 0.00 83 1017.4
20260503060343 47 298 0.0 1.0 0.00 0.00 0.00 79 1016.8
20260503054824 47 298 0.0 1.0 0.00 0.00 0.00 79 1016.7
20260503054820 47 298 0.0 1.0 0.00 0.00 0.00 79 1016.7
20260503054037 48 298 0.0 0.0 0.00 0.00 0.00 78 1016.8
20260503053304 48 298 0.0 0.0 0.00 0.00 0.00 77 1016.8
20260503052807 48 298 0.0 0.0 0.00 0.00 0.00 77 1016.8
20260503052305 49 298 0.0 0.0 0.00 0.00 0.00 77 1016.7
20260503051805 49 298 0.0 0.0 0.00 0.00 0.00 77 1016.7
20260503051525 49 298 0.0 0.0 0.00 0.00 0.00 78 1016.7
20260503050800 49 298 0.0 0.0 0.00 0.00 0.00 78 1016.7
20260503050255 49 298 0.0 0.0 0.00 0.00 0.00 77 1016.8
20260503045755 49 298 0.0 0.0 0.00 0.00 0.00 76 1016.8
20260503045300 49 298 0.0 0.0 0.00 0.00 0.00 76 1016.8
20260503044756 49 298 0.0 0.0 0.00 0.00 0.00 76 1016.8
20260503044251 50 298 0.0 0.0 0.00 0.00 0.00 76 1016.8
20260503043745 50 298 0.0 0.0 0.00 0.00 0.00 77 1016.8
20260503043502 50 298 0.0 2.0 0.00 0.00 0.00 77 1016.8
20260503042729 50 298 0.0 2.0 0.00 0.00 0.00 76 1016.8
20260503042225 50 298 0.0 0.0 0.00 0.00 0.00 76 1016.8
20260503041945 50 298 0.0 0.0 0.00 0.00 0.00 76 1016.7
20260503041221 50 298 0.0 0.0 0.00 0.00 0.00 74 1016.7
20260503040722 51 298 0.0 0.0 0.00 0.00 0.00 73 1016.7
20260503040217 51 298 0.0 0.0 0.00 0.00 0.00 74 1016.6
20260503035701 51 298 0.0 0.0 0.00 0.00 0.00 72 1016.6
20260503035157 51 298 0.0 0.0 0.00 0.00 0.00 72 1016.6
20260503034651 52 298 0.0 0.0 0.00 0.00 0.00 72 1016.5
20260503034132 52 298 0.0 0.0 0.00 0.00 0.00 70 1016.5
20260503033632 52 298 0.0 0.0 0.00 0.00 0.00 71 1016.5
20260503033609 53 298 0.0 0.0 0.00 0.00 0.00 69 1016.5
20260503032632 53 298 0.0 0.0 0.00 0.00 0.00 70 1016.5
20260503032132 53 298 0.0 1.0 0.00 0.00 0.00 70 1016.4
20260503031628 54 298 0.0 1.0 0.00 0.00 0.00 69 1016.4
20260503031117 55 287 0.0 0.0 0.00 0.00 0.00 69 1016.4
20260503030607 55 287 0.0 1.0 0.00 0.00 0.00 67 1016.3
20260503030108 56 287 0.0 1.0 0.00 0.00 0.00 67 1016.3
20260503025608 56 288 0.0 0.0 0.00 0.00 0.00 66 1016.3
20260503025111 57 288 0.0 0.0 0.00 0.00 0.00 65 1016.2
20260503024608 58 288 0.0 2.0 0.00 0.00 0.00 62 1016.2
20260503024104 58 288 0.0 2.0 0.00 0.00 0.00 64 1016.2
20260503023558 59 288 0.0 0.0 0.00 0.00 0.00 63 1016.0
20260503023054 60 288 0.0 0.0 0.00 0.00 0.00 61 1016.0
20260503022554 60 288 0.0 1.0 0.00 0.00 0.00 61 1016.0
20260503022328 61 288 0.0 1.0 0.00 0.00 0.00 59 1015.9
20260503021814 61 288 0.0 1.0 0.00 0.00 0.00 57 1015.9
20260503021315 62 288 0.0 1.0 0.00 0.00 0.00 58 1016.0
20260503020549 63 288 0.0 0.0 0.00 0.00 0.00 57 1015.9
20260503020045 63 288 0.0 0.0 0.00 0.00 0.00 56 1015.9
20260503015545 64 288 0.0 0.0 0.00 0.00 0.00 56 1015.9
20260503015045 65 288 0.0 2.0 0.00 0.00 0.00 56 1015.9
20260503014540 65 288 0.0 2.0 0.00 0.00 0.00 53 1016.0
20260503014041 65 288 0.0 1.0 0.00 0.00 0.00 53 1015.9
20260503013535 65 288 0.0 0.0 0.00 0.00 0.00 50 1016.0
20260503013033 66 288 0.0 4.0 0.00 0.00 0.00 49 1016.0
20260503012525 66 288 0.0 4.0 0.00 0.00 0.00 51 1016.0
20260503012240 66 100 0.0 2.0 0.00 0.00 0.00 49 1016.0
20260503011521 66 145 0.0 2.0 0.00 0.00 0.00 47 1015.9
20260503011021 66 145 0.0 2.0 0.00 0.00 0.00 45 1015.9
20260503010523 66 179 0.0 1.0 0.00 0.00 0.00 44 1016.0
20260503010022 66 297 0.0 4.0 0.00 0.00 0.00 44 1016.0
20260503005512 66 297 0.0 4.0 0.00 0.00 0.00 41 1016.2
20260503005001 67 313 0.0 4.0 0.00 0.00 0.00 41 1016.2
20260503004457 67 158 1.0 5.0 0.00 0.00 0.00 40 1016.2
20260503003957 67 0 1.0 5.0 0.00 0.00 0.00 38 1016.3
20260503003457 68 180 0.0 5.0 0.00 0.00 0.00 38 1016.3
20260503002957 68 180 1.0 5.0 0.00 0.00 0.00 38 1016.3
20260503002718 68 190 0.0 3.0 0.00 0.00 0.00 37 1016.3
20260503002210 68 190 0.0 4.0 0.00 0.00 0.00 37 1016.3
20260503001447 68 190 1.0 4.0 0.00 0.00 0.00 36 1016.4
20260503000943 68 9 0.0 4.0 0.00 0.00 0.00 37 1016.3
20260503000443 68 15 0.0 2.0 0.00 0.00 0.00 36 1016.2
20260502235943 68 15 0.0 6.0 0.00 0.00 0.00 38 1016.3
20260502235446 68 325 1.0 6.0 0.00 0.00 0.00 38 1016.3
20260502234944 68 326 1.0 5.0 0.00 0.00 0.00 37 1016.4
20260502234439 68 316 0.0 4.0 0.00 0.00 0.00 37 1016.3
20260502233938 68 207 0.0 4.0 0.00 0.00 0.00 36 1016.2
20260502233433 68 194 0.0 4.0 0.00 0.00 0.00 37 1016.2
20260502232929 68 215 0.0 3.0 0.00 0.00 0.00 37 1016.3
20260502232429 69 195 0.0 5.0 0.00 0.00 0.00 36 1016.4
20260502232416 69 187 0.0 5.0 0.00 0.00 0.00 36 1016.5
20260502231425 69 182 1.0 7.0 0.00 0.00 0.00 35 1016.5
20260502230925 70 217 3.0 7.0 0.00 0.00 0.00 34 1016.6
20260502230425 71 173 0.0 5.0 0.00 0.00 0.00 34 1016.6
20260502230409 71 330 0.0 5.0 0.00 0.00 0.00 34 1016.7
20260502225420 72 218 1.0 5.0 0.00 0.00 0.00 33 1016.7
20260502224915 72 311 1.0 8.0 0.00 0.00 0.00 34 1016.7
20260502224416 72 309 2.0 8.0 0.00 0.00 0.00 32 1016.7
20260502223916 72 294 2.0 5.0 0.00 0.00 0.00 31 1016.7
20260502223419 72 325 0.0 6.0 0.00 0.00 0.00 32 1016.8
20260502222918 73 233 2.0 6.0 0.00 0.00 0.00 31 1016.8
20260502222412 73 87 0.0 3.0 0.00 0.00 0.00 31 1016.8
20260502221912 73 55 0.0 6.0 0.00 0.00 0.00 32 1017.0
20260502221412 73 232 0.0 6.0 0.00 0.00 0.00 31 1016.9
20260502220902 73 226 1.0 4.0 0.00 0.00 0.00 33 1016.9
20260502220402 72 174 1.0 4.0 0.00 0.00 0.00 31 1016.9
20260502215902 72 190 0.0 5.0 0.00 0.00 0.00 31 1017.0
20260502215405 72 86 1.0 8.0 0.00 0.00 0.00 32 1017.2
20260502214854 72 0 0.0 8.0 0.00 0.00 0.00 34 1017.2
20260502214348 72 182 1.0 5.0 0.00 0.00 0.00 32 1017.3
20260502213847 72 241 1.0 5.0 0.00 0.00 0.00 31 1017.3
20260502213348 72 350 0.0 3.0 0.00 0.00 0.00 34 1017.3
20260502212848 72 69 0.0 4.0 0.00 0.00 0.00 33 1017.4
20260502212344 72 95 0.0 4.0 0.00 0.00 0.00 33 1017.4
20260502211844 71 38 0.0 6.0 0.00 0.00 0.00 33 1017.5
20260502211339 71 115 1.0 6.0 0.00 0.00 0.00 32 1017.5
20260502210829 71 309 0.0 4.0 0.00 0.00 0.00 36 1017.5
20260502210329 71 342 0.0 7.0 0.00 0.00 0.00 34 1017.6
20260502210052 71 24 2.0 7.0 0.00 0.00 0.00 35 1017.7
20260502205332 70 292 0.0 6.0 0.00 0.00 0.00 37 1017.8
20260502204829 70 352 2.0 8.0 0.00 0.00 0.00 33 1017.9
20260502204330 70 299 2.0 8.0 0.00 0.00 0.00 35 1017.9
20260502203825 70 309 1.0 7.0 0.00 0.00 0.00 36 1018.1
20260502203325 69 5 0.0 8.0 0.00 0.00 0.00 36 1018.2
20260502202825 69 205 2.0 8.0 0.00 0.00 0.00 36 1018.2
20260502202320 69 319 0.0 7.0 0.00 0.00 0.00 37 1018.2
20260502201820 69 150 0.0 4.0 0.00 0.00 0.00 36 1018.3
20260502201321 69 148 0.0 4.0 0.00 0.00 0.00 36 1018.4
20260502200820 69 183 0.0 4.0 0.00 0.00 0.00 37 1018.4